Regional Weather Roundup
Issued by NWS Charleston, SC

Current Version | Previous Version | Graphics & Text | Print | Product List | Glossary On
Versions: 1 2 3 4 5 6 7 8 9 10 11 12 13 14 15 16 17 18 19 20 21 22 23 24 25 26 27 28 29 30 31 32 33 34 35 36 37 38 39 40 41 42 43 44 45 46 47 48 49 50
881
ASUS42 KCHS 030912
RWRCHS

REGIONAL WEATHER ROUNDUP
NATIONAL WEATHER SERVICE CHARLESTON SC
400 AM EST SAT DEC 03 2016

NOTE: "FAIR" INDICATES FEW OR NO CLOUDS BELOW 12,000 FEET WITH NO
SIGNIFICANT WEATHER AND/OR OBSTRUCTIONS TO VISIBILITY.

NOT ALL STATIONS ARE QUALITY CONTROLLED. USE DATA WITH CAUTION...
ESPECIALLY DEWPOINT OBSERVATIONS.

SCZ027-030-031-034>040-042>050-031000-
...SOUTHEAST SOUTH CAROLINA...

CITY           SKY/WX    TMP DP  RH WIND       PRES   REMARKS
N CHARLESTON   PTCLDY    40  36  86 CALM      30.19S
WATERFRONT PRK   N/A     48  40  73 VRB3      30.17F
MOUNT PLEASANT NOT AVBL
JOHNS ISLAND   FAIR      39  37  93 CALM      30.20R
PINOPOLIS        N/A     48  43  81 VRB2      30.12S
MONCKS CORNER  FAIR      36  34  93 CALM      30.19F
SUMMERVILLE    FAIR      36  36 100 CALM      30.21S
BEAUFORT MCAS  MOCLDY    40  38  93 CALM      30.20S
BEAUFORT ARPT  FAIR      45  43  93 CALM      30.19F
HILTON HEAD IS NOT AVBL
WALTERBORO     CLOUDY    37 N/A N/A CALM      30.21S
ALLENDALE      FAIR      37  37 100 CALM      30.20S

...SOUTHERN MIDLANDS AND PEE DEE...

CITY           SKY/WX    TMP DP  RH WIND       PRES   REMARKS
GEORGETOWN     NOT AVBL
KINGSTREE      NOT AVBL
ORANGEBURG     NOT AVBL
BARNWELL       NOT AVBL
AIKEN          NOT AVBL
MANNING        NOT AVBL
COLUMBIA       PTCLDY    37  34  89 CALM      30.20F
SUMTER         CLOUDY    40  33  77 CALM      30.18F
FLORENCE       NOT AVBL
MYRTLE BEACH   CLOUDY    43  34  70 N5        30.22R
N MYRTLE BEACH NOT AVBL

$$

GAZ063-065-086>088-099>101-113>116-118-119-134>141-150-031000-
...SOUTHEAST GEORGIA...

CITY           SKY/WX    TMP DP  RH WIND       PRES   REMARKS
SAVANNAH ARPT  NOT AVBL
HUNTER AAF     CLOUDY    42  42  99 N3        30.18F
FORT STEWART   CLOUDY    44  37  76 CALM      30.19F
STATESBORO     PTCLDY    40  40  99 CALM      30.23R
SYLVANIA       CLOUDY   N/A N/A N/A CALM      30.23R
CLAXTON        FAIR     N/A N/A N/A W3        30.24S

...CSRA...CENTRAL AND FAR SOUTHEAST GEORGIA...

CITY           SKY/WX    TMP DP  RH WIND       PRES   REMARKS
THOMSON        PTCLDY    40  38  93 CALM      30.26S
AUGUSTA-BUSH   CLOUDY    34  32  92 CALM      30.21S
AUGUSTA-DANIEL PTCLDY    47  31  53 NW6       30.21S
SWAINSBORO     FAIR      37  36  93 CALM      30.24R
VIDALIA        CLOUDY    45  43  93 N3        30.23S
EASTMAN        FAIR      42  37  81 CALM      30.26F
HAZLEHURST     FAIR      48  37  67 N3        30.22S
ALMA           NOT AVBL
WAYCROSS       PTCLDY    48  41  77 CALM      30.20F
JESUP          FAIR      50  37  62 CALM      30.20F
BAXLEY         FAIR      45  41  87 N3        30.22R
BRUNSWICK      MOCLDY    45  45 100 CALM      30.21S
SAINT SIMONS   NOT AVBL

$$

SCZ027-028-034-036>038-045-046-048>050-GAZ119-141-031000-
...LAKE AND SUPPLEMENTAL COASTAL OBSERVATIONS...

STATION/POSITION TIME  TEMP    WIND        PRES    WAVE   SWELL
                       AIR SEA DIR/SP/G            HT/PER HT/PER/DIR
                 (UTC) (F)     (DEG/KT/KT) (MB)    (FT/S) (FT/S/D)
WINYAH BAY       0745   45     310/  4     1022.0
LAKE MURRAY      0820   46      CALM  /  1 1022.4S
ACE BASIN NERRS  0745   42        CALM     1022.0
FORT PULASKI     0836   50 62  330/  6/  7 1023.1R
SAPELO ISLAND    0800   51     360/  6     1023.0

$$

ANZ835-935-AMZ111-154-330-350-352-354-370-450-454-472-031000-
...C-MAN AND BUOY OBSERVATIONS...

STATION/POSITION TIME  TEMP    WIND        PRES    WAVE   SWELL
                       AIR SEA DIR/SP/G            HT/PER HT/PER/DIR
                 (UTC) (F)     (DEG/KT/KT) (MB)    (FT/S) (FT/S/D)
BUOY 41004       0850   62 75  350/ 16/ 21 1021.1F   3/ 9   2/140/ 9
BUOY 41008       0850   61 64  360/ 12/ 14 1022.1F   2/ 8   2/120/ 8
FOLLY BEACH CMAN 0800   47     310/  3/  4 1022.7F
CAPERS NEARSHORE 0808   54 62  340/ 10/ 12 1022.0F
FRIPP NEARSHORE  0808   57 63  340/  6/  8 1022.1F


STATION/POSITION TIME  TEMP    WIND        PRES    WAVE   SWELL
                       AIR SEA DIR/SP/G            HT/PER HT/PER/DIR
                 (UTC) (F)     (DEG/KT/KT) (MB)    (FT/S) (FT/S/D)
5E ST. MARYS GA  0900      66                N/A     3/ 4
FRYING PAN BUOY  0850   59 74  340/ 19/ 23 1021.4F   4/ 4   2/120/ 8
BUOY 41025       0850   53 74  350/ 21/ 25 1019.7R   5/ 6   2/180/13
CAPE LOOKOUT NC  0800   47     340/ 12/ 15 1021.4R
BUOY 41002       0850   65 74  350/ 14/ 17 1018.5F   4/ 6   2/140/ 8
BUOY 41010       NOT AVBL
ST AUGUSTINE FL  0900   63 66   20/ 16/ 17 1022.9R


$$




USA.gov is the U.S. government's official web portal to all federal, state and local government web resources and services.